Location: Boćki
(52.6512°N, 23.0459°E)
Time: 08:11:56
(UTC+02:00)

ISS - Pass Details

Date: 29 March 2019
Orbit: 408 x 410 km, 51.6° (Epoch: 26 April)

Event Time Altitude Azimuth Distance (km) Brightness Sun altitude
Rises 20:05:00 0° 275° (W) 2,339 1.1 -19.0°
Reaches altitude 10° 20:07:05 10° 272° (W) 1,476 -0.2 -19.2°
Enters shadow 20:10:13 66° 211° (SSW) 450 -3.7 -19.6°
